[Date Prev][Date Next][Thread Prev][Thread Next] - [Date Index][Thread Index][Author Index]

2 Line ISS Keps 10-9



ISS
1 25544U 98067A   01282.40322444  .00064610  00000-0  73262-3 0  5734
2 25544  51.6390 233.9886 0007703 182.1133 325.1136 15.61727949164903


----
Via the sarex mailing list at AMSAT.ORG courtesy of AMSAT-NA.
To unsubscribe, send "unsubscribe sarex" to Majordomo@amsat.org



AMSAT Top AMSAT Home